Time,TemperatureF,DewpointF,PressureIn,WindDirection,WindDirectionDegrees,WindSpeedMPH,WindSpeedGustMPH,Humidity,HourlyPrecipIn,Conditions,Clouds,dailyrainin,SoftwareType,DateUTC
2013-06-27 00:02:00,73.6,71.1,29.90,SSW,193,2.0,3.0,92,0.13,,,0.00,Wunderground v.1.15,2013-06-27 04:02:00,
2013-06-27 00:06:00,74.0,71.2,29.90,South,181,3.0,4.0,91,0.07,,,0.00,Wunderground v.1.15,2013-06-27 04:06:00,
2013-06-27 00:10:00,74.4,70.9,29.90,SSW,195,4.0,7.0,89,0.05,,,0.01,Wunderground v.1.15,2013-06-27 04:10:00,
2013-06-27 00:11:00,74.6,71.1,29.90,South,176,4.0,7.0,89,0.05,,,0.01,Wunderground v.1.15,2013-06-27 04:11:00,
2013-06-27 00:18:00,74.6,71.1,29.90,South,187,5.0,7.0,89,0.05,,,0.01,Wunderground v.1.15,2013-06-27 04:18:00,
2013-06-27 00:19:00,74.6,71.1,29.90,South,183,4.0,4.0,89,0.05,,,0.01,Wunderground v.1.15,2013-06-27 04:19:00,
2013-06-27 00:25:00,74.6,71.1,29.90,South,169,3.0,5.0,89,0.00,,,0.01,Wunderground v.1.15,2013-06-27 04:25:00,
2013-06-27 00:31:00,74.6,71.1,29.91,SE,135,4.0,5.0,89,0.00,,,0.01,Wunderground v.1.15,2013-06-27 04:31:00,
2013-06-27 00:37:00,74.6,71.1,29.89,South,176,5.0,5.0,89,0.00,,,0.01,Wunderground v.1.15,2013-06-27 04:37:00,
2013-06-27 00:43:00,74.5,71.4,29.89,South,172,4.0,5.0,90,0.00,,,0.01,Wunderground v.1.15,2013-06-27 04:43:00,
2013-06-27 00:50:00,74.5,71.4,29.90,South,172,5.0,5.0,90,0.00,,,0.01,Wunderground v.1.15,2013-06-27 04:50:00,
2013-06-27 00:56:00,74.6,71.1,29.90,SSE,163,6.0,7.0,89,0.00,,,0.01,Wunderground v.1.15,2013-06-27 04:56:00,
2013-06-27 01:02:00,74.7,71.2,29.89,South,183,5.0,5.0,89,0.00,,,0.01,Wunderground v.1.15,2013-06-27 05:02:00,
2013-06-27 01:07:00,74.7,71.2,29.89,SE,139,4.0,5.0,89,0.00,,,0.01,Wunderground v.1.15,2013-06-27 05:07:00,
2013-06-27 01:13:00,74.6,71.1,29.88,South,180,4.0,6.0,89,0.00,,,0.01,Wunderground v.1.15,2013-06-27 05:13:00,
2013-06-27 01:21:00,74.4,71.3,29.88,South,188,3.0,5.0,90,0.00,,,0.01,Wunderground v.1.15,2013-06-27 05:21:00,
2013-06-27 01:27:00,74.2,71.1,29.88,South,179,3.0,5.0,90,0.00,,,0.01,Wunderground v.1.15,2013-06-27 05:27:00,
2013-06-27 01:33:00,74.1,71.0,29.88,South,174,3.0,6.0,90,0.00,,,0.01,Wunderground v.1.15,2013-06-27 05:33:00,
2013-06-27 01:40:00,74.2,71.4,29.87,SSE,155,4.0,4.0,91,0.00,,,0.01,Wunderground v.1.15,2013-06-27 05:40:00,
2013-06-27 01:46:00,74.3,71.5,29.87,South,171,4.0,5.0,91,0.00,,,0.01,Wunderground v.1.15,2013-06-27 05:46:00,
2013-06-27 01:52:00,74.3,71.5,29.86,SE,146,3.0,5.0,91,0.00,,,0.01,Wunderground v.1.15,2013-06-27 05:52:00,
2013-06-27 01:58:00,74.2,71.4,29.86,SSE,162,3.0,5.0,91,0.00,,,0.01,Wunderground v.1.15,2013-06-27 05:58:00,
2013-06-27 02:03:00,74.3,71.5,29.86,South,184,4.0,5.0,91,0.00,,,0.01,Wunderground v.1.15,2013-06-27 06:03:00,
2013-06-27 02:09:00,74.4,71.6,29.86,South,176,4.0,7.0,91,0.00,,,0.01,Wunderground v.1.15,2013-06-27 06:09:00,
2013-06-27 02:15:00,74.2,71.4,29.90,SSW,203,8.0,15.0,91,0.27,,,0.11,Wunderground v.1.15,2013-06-27 06:15:00,
2013-06-27 02:21:00,69.1,65.4,29.91,SSW,201,15.0,15.0,88,4.11,,,0.18,Wunderground v.1.15,2013-06-27 06:21:00,
2013-06-27 02:28:00,66.3,64.2,29.90,SSW,205,14.0,15.0,93,0.18,,,0.25,Wunderground v.1.15,2013-06-27 06:28:00,
2013-06-27 02:34:00,66.1,64.6,29.92,SSW,194,10.0,15.0,95,0.19,,,0.27,Wunderground v.1.15,2013-06-27 06:34:00,
2013-06-27 02:40:00,66.1,64.6,29.91,South,180,10.0,10.0,95,0.32,,,0.30,Wunderground v.1.15,2013-06-27 06:40:00,
2013-06-27 02:46:00,66.0,64.5,29.90,South,184,7.0,10.0,95,0.19,,,0.32,Wunderground v.1.15,2013-06-27 06:46:00,
2013-06-27 02:51:00,65.8,64.6,29.89,SSE,166,6.0,7.0,96,0.07,,,0.32,Wunderground v.1.15,2013-06-27 06:51:00,
2013-06-27 02:57:00,65.7,64.5,29.88,South,183,5.0,7.0,96,0.04,,,0.32,Wunderground v.1.15,2013-06-27 06:57:00,
2013-06-27 03:03:00,65.6,64.4,29.88,South,191,5.0,6.0,96,0.00,,,0.32,Wunderground v.1.15,2013-06-27 07:03:00,
2013-06-27 03:09:00,65.6,64.4,29.88,SSW,205,4.0,4.0,96,0.00,,,0.32,Wunderground v.1.15,2013-06-27 07:09:00,
2013-06-27 03:16:00,65.5,64.3,29.86,South,190,3.0,5.0,96,0.00,,,0.32,Wunderground v.1.15,2013-06-27 07:16:00,
2013-06-27 03:22:00,65.5,64.3,29.86,SSW,210,3.0,5.0,96,0.00,,,0.32,Wunderground v.1.15,2013-06-27 07:22:00,
2013-06-27 03:28:00,65.5,64.3,29.86,SSE,162,2.0,5.0,96,0.00,,,0.32,Wunderground v.1.15,2013-06-27 07:28:00,
2013-06-27 03:34:00,65.5,64.3,29.85,ESE,109,2.0,5.0,96,0.00,,,0.32,Wunderground v.1.15,2013-06-27 07:34:00,
2013-06-27 03:39:00,65.6,64.7,29.87,SSE,148,3.0,5.0,97,0.00,,,0.32,Wunderground v.1.15,2013-06-27 07:39:00,
2013-06-27 03:45:00,65.7,64.8,29.87,SE,143,4.0,7.0,97,0.00,,,0.32,Wunderground v.1.15,2013-06-27 07:45:00,
2013-06-27 03:53:00,65.6,64.4,29.90,South,181,5.0,6.0,96,0.00,,,0.32,Wunderground v.1.15,2013-06-27 07:53:00,
2013-06-27 04:00:00,65.6,64.7,29.90,South,183,6.0,6.0,97,0.00,,,0.32,Wunderground v.1.15,2013-06-27 08:00:00,
2013-06-27 04:06:00,65.6,64.7,29.90,South,176,6.0,6.0,97,0.00,,,0.32,Wunderground v.1.15,2013-06-27 08:06:00,
2013-06-27 04:12:00,65.7,64.8,29.89,SE,134,6.0,9.0,97,0.00,,,0.32,Wunderground v.1.15,2013-06-27 08:12:00,
2013-06-27 04:18:00,65.8,64.9,29.89,SSE,163,8.0,9.0,97,0.00,,,0.32,Wunderground v.1.15,2013-06-27 08:18:00,
2013-06-27 04:23:00,66.0,65.1,29.90,South,172,7.0,8.0,97,0.00,,,0.32,Wunderground v.1.15,2013-06-27 08:23:00,
2013-06-27 04:29:00,66.1,65.2,29.89,SE,145,6.0,6.0,97,0.00,,,0.32,Wunderground v.1.15,2013-06-27 08:29:00,
2013-06-27 04:35:00,66.0,65.1,29.90,SE,124,6.0,6.0,97,0.00,,,0.32,Wunderground v.1.15,2013-06-27 08:35:00,
2013-06-27 04:41:00,66.1,65.2,29.90,SSW,195,4.0,5.0,97,0.00,,,0.32,Wunderground v.1.15,2013-06-27 08:41:00,
2013-06-27 04:47:00,66.0,65.1,29.90,SSE,162,5.0,8.0,97,0.00,,,0.32,Wunderground v.1.15,2013-06-27 08:47:00,
2013-06-27 04:54:00,65.9,65.0,29.89,SSE,153,3.0,5.0,97,0.00,,,0.32,Wunderground v.1.15,2013-06-27 08:54:00,
2013-06-27 05:00:00,66.0,65.1,29.88,SSE,167,2.0,2.0,97,0.00,,,0.32,Wunderground v.1.15,2013-06-27 09:00:00,
2013-06-27 05:06:00,65.9,65.0,29.88,South,183,2.0,5.0,97,0.00,,,0.32,Wunderground v.1.15,2013-06-27 09:06:00,
2013-06-27 05:12:00,65.8,64.9,29.88,SSE,167,2.0,5.0,97,0.00,,,0.32,Wunderground v.1.15,2013-06-27 09:12:00,
2013-06-27 05:18:00,65.8,64.9,29.89,SSW,199,2.0,5.0,97,0.00,,,0.32,Wunderground v.1.15,2013-06-27 09:18:00,
2013-06-27 05:24:00,65.7,64.8,29.88,South,174,1.0,5.0,97,0.00,,,0.32,Wunderground v.1.15,2013-06-27 09:24:00,
2013-06-27 05:30:00,65.8,64.9,29.89,SSW,194,1.0,5.0,97,0.00,,,0.32,Wunderground v.1.15,2013-06-27 09:30:00,
2013-06-27 05:36:00,65.8,64.9,29.89,SSW,198,2.0,5.0,97,0.00,,,0.32,Wunderground v.1.15,2013-06-27 09:36:00,
2013-06-27 05:41:00,65.8,64.9,29.89,SSW,212,1.0,5.0,97,0.00,,,0.32,Wunderground v.1.15,2013-06-27 09:41:00,
2013-06-27 05:47:00,65.8,64.9,29.89,SSW,208,2.0,5.0,97,0.00,,,0.32,Wunderground v.1.15,2013-06-27 09:47:00,
2013-06-27 05:53:00,65.8,64.9,29.88,SSW,195,1.0,5.0,97,0.00,,,0.32,Wunderground v.1.15,2013-06-27 09:53:00,
2013-06-27 05:59:00,65.8,64.9,29.88,South,185,1.0,1.0,97,0.00,,,0.32,Wunderground v.1.15,2013-06-27 09:59:00,
2013-06-27 06:05:00,65.7,64.8,29.88,SSW,203,1.0,5.0,97,0.00,,,0.32,Wunderground v.1.15,2013-06-27 10:05:00,
2013-06-27 06:12:00,65.7,64.8,29.87,South,177,2.0,5.0,97,0.00,,,0.32,Wunderground v.1.15,2013-06-27 10:12:00,
2013-06-27 06:18:00,65.7,64.8,29.87,South,179,2.0,5.0,97,0.00,,,0.33,Wunderground v.1.15,2013-06-27 10:18:00,
2013-06-27 06:24:00,65.7,64.8,29.87,SSW,203,1.0,5.0,97,0.00,,,0.33,Wunderground v.1.15,2013-06-27 10:24:00,
2013-06-27 06:30:00,65.7,64.8,29.88,SSW,212,1.0,5.0,97,0.00,,,0.33,Wunderground v.1.15,2013-06-27 10:30:00,
2013-06-27 06:35:00,65.8,64.9,29.87,SSW,211,1.0,5.0,97,0.00,,,0.33,Wunderground v.1.15,2013-06-27 10:35:00,
2013-06-27 06:42:00,65.8,64.9,29.87,WSW,255,1.0,5.0,97,0.00,,,0.33,Wunderground v.1.15,2013-06-27 10:42:00,
2013-06-27 06:48:00,66.0,65.1,29.87,WNW,282,1.0,5.0,97,0.00,,,0.33,Wunderground v.1.15,2013-06-27 10:48:00,
2013-06-27 06:53:00,65.9,65.0,29.87,SSW,208,0.0,5.0,97,0.00,,,0.33,Wunderground v.1.15,2013-06-27 10:53:00,
2013-06-27 07:00:00,66.0,65.1,29.86,SSE,160,1.0,5.0,97,0.00,,,0.33,Wunderground v.1.15,2013-06-27 11:00:00,
2013-06-27 07:05:00,66.1,65.2,29.86,South,184,1.0,5.0,97,0.00,,,0.33,Wunderground v.1.15,2013-06-27 11:05:00,
2013-06-27 07:12:00,66.2,65.3,29.86,SSW,211,2.0,5.0,97,0.00,,,0.33,Wunderground v.1.15,2013-06-27 11:12:00,
2013-06-27 07:17:00,66.2,65.3,29.86,SSW,201,2.0,5.0,97,0.00,,,0.33,Wunderground v.1.15,2013-06-27 11:17:00,
2013-06-27 07:23:00,66.3,65.4,29.86,South,187,2.0,5.0,97,0.00,,,0.33,Wunderground v.1.15,2013-06-27 11:23:00,
2013-06-27 07:29:00,66.4,65.5,29.86,South,177,0.0,5.0,97,0.00,,,0.33,Wunderground v.1.15,2013-06-27 11:29:00,
2013-06-27 07:35:00,66.6,65.7,29.86,SSE,158,0.0,5.0,97,0.00,,,0.33,Wunderground v.1.15,2013-06-27 11:35:00,
2013-06-27 07:41:00,66.8,65.9,29.86,West,264,0.0,5.0,97,0.00,,,0.33,Wunderground v.1.15,2013-06-27 11:41:00,
2013-06-27 07:47:00,67.0,66.1,29.87,WSW,245,1.0,5.0,97,0.00,,,0.33,Wunderground v.1.15,2013-06-27 11:47:00,
2013-06-27 07:54:00,67.2,66.3,29.86,SSW,211,1.0,5.0,97,0.00,,,0.33,Wunderground v.1.15,2013-06-27 11:54:00,
2013-06-27 07:59:00,67.3,66.1,29.86,SSE,158,1.0,1.0,96,0.00,,,0.33,Wunderground v.1.15,2013-06-27 11:59:00,
2013-06-27 08:06:00,67.7,66.8,29.87,South,190,0.0,5.0,97,0.00,,,0.33,Wunderground v.1.15,2013-06-27 12:06:00,
2013-06-27 08:12:00,68.0,66.8,29.86,South,190,0.0,5.0,96,0.00,,,0.33,Wunderground v.1.15,2013-06-27 12:12:00,
2013-06-27 08:18:00,68.1,66.9,29.87,SSW,204,0.0,5.0,96,0.00,,,0.33,Wunderground v.1.15,2013-06-27 12:18:00,
2013-06-27 08:24:00,68.2,67.0,29.87,SSW,210,1.0,5.0,96,0.00,,,0.33,Wunderground v.1.15,2013-06-27 12:24:00,
2013-06-27 08:30:00,68.4,67.2,29.87,South,186,1.0,5.0,96,0.00,,,0.33,Wunderground v.1.15,2013-06-27 12:30:00,
2013-06-27 08:36:00,68.4,66.9,29.87,SW,225,2.0,5.0,95,0.00,,,0.33,Wunderground v.1.15,2013-06-27 12:36:00,
2013-06-27 08:41:00,68.4,66.9,29.87,WSW,241,3.0,5.0,95,0.00,,,0.33,Wunderground v.1.15,2013-06-27 12:41:00,
2013-06-27 08:48:00,68.6,67.1,29.87,WSW,238,1.0,5.0,95,0.00,,,0.33,Wunderground v.1.15,2013-06-27 12:48:00,
2013-06-27 08:54:00,69.0,67.5,29.87,WNW,289,0.0,5.0,95,0.00,,,0.33,Wunderground v.1.15,2013-06-27 12:54:00,
2013-06-27 08:59:00,69.0,67.2,29.87,WSW,238,1.0,1.0,94,0.00,,,0.33,Wunderground v.1.15,2013-06-27 12:59:00,
2013-06-27 09:05:00,69.2,67.4,29.87,SSW,192,1.0,5.0,94,0.00,,,0.33,Wunderground v.1.15,2013-06-27 13:05:00,
2013-06-27 09:11:00,69.4,67.3,29.87,SSW,193,0.0,5.0,93,0.00,,,0.33,Wunderground v.1.15,2013-06-27 13:11:00,
2013-06-27 09:17:00,69.6,67.5,29.87,SSW,197,1.0,5.0,93,0.00,,,0.33,Wunderground v.1.15,2013-06-27 13:17:00,
2013-06-27 09:23:00,70.0,68.2,29.87,South,181,1.0,5.0,94,0.00,,,0.33,Wunderground v.1.15,2013-06-27 13:23:00,
2013-06-27 09:30:00,70.3,68.2,29.87,SSE,156,3.0,3.0,93,0.00,,,0.33,Wunderground v.1.15,2013-06-27 13:30:00,
2013-06-27 09:36:00,70.5,68.4,29.87,SSW,205,3.0,5.0,93,0.00,,,0.33,Wunderground v.1.15,2013-06-27 13:36:00,
2013-06-27 09:42:00,70.7,68.6,29.87,SSE,167,3.0,5.0,93,0.00,,,0.33,Wunderground v.1.15,2013-06-27 13:42:00,
2013-06-27 09:47:00,70.9,68.8,29.87,SSW,197,2.0,5.0,93,0.00,,,0.33,Wunderground v.1.15,2013-06-27 13:47:00,
2013-06-27 09:54:00,71.0,68.9,29.86,SW,221,4.0,6.0,93,0.00,,,0.33,Wunderground v.1.15,2013-06-27 13:54:00,
2013-06-27 09:59:00,71.0,68.6,29.86,SSW,194,6.0,6.0,92,0.00,,,0.33,Wunderground v.1.15,2013-06-27 13:59:00,
2013-06-27 10:06:00,71.0,68.9,29.86,South,173,5.0,6.0,93,0.00,,,0.33,Wunderground v.1.15,2013-06-27 14:06:00,
2013-06-27 10:11:00,71.2,69.1,29.86,South,187,5.0,5.0,93,0.00,,,0.33,Wunderground v.1.15,2013-06-27 14:11:00,
2013-06-27 10:17:00,71.5,69.4,29.86,South,190,5.0,8.0,93,0.00,,,0.33,Wunderground v.1.15,2013-06-27 14:17:00,
2013-06-27 10:23:00,71.7,69.6,29.86,South,190,6.0,8.0,93,0.00,,,0.33,Wunderground v.1.15,2013-06-27 14:23:00,
2013-06-27 10:29:00,71.6,69.5,29.87,SSW,207,7.0,7.0,93,0.64,,,0.38,Wunderground v.1.15,2013-06-27 14:29:00,
2013-06-27 10:35:00,71.4,69.6,29.86,South,174,6.0,7.0,94,0.13,,,0.40,Wunderground v.1.15,2013-06-27 14:35:00,
2013-06-27 10:41:00,71.4,69.6,29.86,SSW,203,5.0,6.0,94,0.08,,,0.41,Wunderground v.1.15,2013-06-27 14:41:00,
2013-06-27 10:48:00,71.5,69.7,29.86,South,187,5.0,7.0,94,0.07,,,0.41,Wunderground v.1.15,2013-06-27 14:48:00,
2013-06-27 10:54:00,71.8,70.0,29.86,South,176,5.0,6.0,94,0.04,,,0.41,Wunderground v.1.15,2013-06-27 14:54:00,
2013-06-27 11:00:00,72.1,70.3,29.86,SSW,200,5.0,5.0,94,0.00,,,0.41,Wunderground v.1.15,2013-06-27 15:00:00,
2013-06-27 11:06:00,72.3,70.5,29.87,SSW,211,4.0,6.0,94,0.00,,,0.41,Wunderground v.1.15,2013-06-27 15:06:00,
2013-06-27 11:12:00,72.6,70.5,29.86,South,188,4.0,5.0,93,0.00,,,0.41,Wunderground v.1.15,2013-06-27 15:12:00,
2013-06-27 11:18:00,73.0,70.9,29.86,South,190,5.0,5.0,93,0.00,,,0.41,Wunderground v.1.15,2013-06-27 15:18:00,
2013-06-27 11:24:00,73.3,71.2,29.86,South,186,4.0,5.0,93,0.00,,,0.41,Wunderground v.1.15,2013-06-27 15:24:00,
2013-06-27 11:29:00,73.7,71.2,29.86,SSW,195,5.0,5.0,92,0.00,,,0.41,Wunderground v.1.15,2013-06-27 15:29:00,
2013-06-27 11:35:00,73.9,71.4,29.86,South,190,5.0,7.0,92,0.00,,,0.41,Wunderground v.1.15,2013-06-27 15:35:00,
2013-06-27 11:41:00,74.3,71.8,29.86,South,172,4.0,5.0,92,0.00,,,0.41,Wunderground v.1.15,2013-06-27 15:41:00,
2013-06-27 11:47:00,74.8,72.3,29.86,SSW,195,3.0,5.0,92,0.00,,,0.41,Wunderground v.1.15,2013-06-27 15:47:00,
2013-06-27 11:54:00,75.3,72.5,29.85,SSW,212,3.0,8.0,91,0.00,,,0.41,Wunderground v.1.15,2013-06-27 15:54:00,
2013-06-27 12:00:00,75.7,72.6,29.85,SSW,195,5.0,5.0,90,0.00,,,0.41,Wunderground v.1.15,2013-06-27 16:00:00,
2013-06-27 12:05:00,76.1,73.0,29.85,SSW,200,5.0,5.0,90,0.00,,,0.41,Wunderground v.1.15,2013-06-27 16:05:00,
2013-06-27 12:12:00,76.3,72.8,29.85,SSW,203,5.0,10.0,89,0.00,,,0.41,Wunderground v.1.15,2013-06-27 16:12:00,
2013-06-27 12:17:00,76.4,72.9,29.85,South,173,6.0,10.0,89,0.00,,,0.41,Wunderground v.1.15,2013-06-27 16:17:00,
2013-06-27 12:23:00,76.6,72.8,29.85,South,188,6.0,8.0,88,0.00,,,0.41,Wunderground v.1.15,2013-06-27 16:23:00,
2013-06-27 12:29:00,76.8,72.6,29.85,South,177,5.0,5.0,87,0.00,,,0.41,Wunderground v.1.15,2013-06-27 16:29:00,
2013-06-27 12:36:00,77.0,72.5,29.85,South,181,7.0,10.0,86,0.00,,,0.41,Wunderground v.1.15,2013-06-27 16:36:00,
2013-06-27 12:41:00,77.2,73.0,29.85,SW,216,7.0,8.0,87,0.00,,,0.41,Wunderground v.1.15,2013-06-27 16:41:00,
2013-06-27 12:48:00,77.5,73.3,29.85,SW,226,5.0,8.0,87,0.00,,,0.41,Wunderground v.1.15,2013-06-27 16:48:00,
2013-06-27 12:53:00,77.7,73.2,29.85,SSW,193,5.0,8.0,86,0.00,,,0.41,Wunderground v.1.15,2013-06-27 16:53:00,
2013-06-27 13:00:00,78.1,73.9,29.85,SSW,206,5.0,5.0,87,0.00,,,0.41,Wunderground v.1.15,2013-06-27 17:00:00,
2013-06-27 13:05:00,78.3,73.8,29.85,SSE,162,5.0,8.0,86,0.00,,,0.41,Wunderground v.1.15,2013-06-27 17:05:00,
2013-06-27 13:11:00,78.9,73.7,29.84,South,187,5.0,5.0,84,0.00,,,0.41,Wunderground v.1.15,2013-06-27 17:11:00,
2013-06-27 13:17:00,79.4,73.8,29.84,South,190,7.0,7.0,83,0.00,,,0.41,Wunderground v.1.15,2013-06-27 17:17:00,
2013-06-27 13:24:00,79.8,73.8,29.84,South,179,7.0,7.0,82,0.00,,,0.41,Wunderground v.1.15,2013-06-27 17:24:00,
2013-06-27 13:29:00,80.0,74.0,29.84,SSW,198,7.0,8.0,82,0.00,,,0.41,Wunderground v.1.15,2013-06-27 17:29:00,
2013-06-27 13:35:00,80.0,74.0,29.84,SSW,201,6.0,8.0,82,0.00,,,0.41,Wunderground v.1.15,2013-06-27 17:35:00,
2013-06-27 13:41:00,80.0,73.6,29.84,South,190,5.0,9.0,81,0.00,,,0.41,Wunderground v.1.15,2013-06-27 17:41:00,
2013-06-27 13:47:00,80.3,73.9,29.84,SSW,207,7.0,9.0,81,0.00,,,0.41,Wunderground v.1.15,2013-06-27 17:47:00,
2013-06-27 13:53:00,80.4,74.4,29.84,SSW,195,6.0,8.0,82,0.00,,,0.41,Wunderground v.1.15,2013-06-27 17:53:00,
2013-06-27 14:00:00,80.7,74.7,29.83,SW,229,5.0,5.0,82,0.00,,,0.41,Wunderground v.1.15,2013-06-27 18:00:00,
2013-06-27 14:06:00,81.6,75.2,29.83,SSW,203,4.0,6.0,81,0.00,,,0.41,Wunderground v.1.15,2013-06-27 18:06:00,
2013-06-27 14:11:00,82.3,75.5,29.83,SSW,207,5.0,6.0,80,0.00,,,0.41,Wunderground v.1.15,2013-06-27 18:11:00,
2013-06-27 14:17:00,82.1,73.8,29.83,SSW,212,6.0,9.0,76,0.00,,,0.41,Wunderground v.1.15,2013-06-27 18:17:00,
2013-06-27 14:23:00,82.0,74.5,29.83,SSW,212,6.0,6.0,78,0.00,,,0.41,Wunderground v.1.15,2013-06-27 18:23:00,
2013-06-27 14:30:00,81.6,74.1,29.82,South,177,6.0,7.0,78,0.00,,,0.41,Wunderground v.1.15,2013-06-27 18:30:00,
2013-06-27 14:36:00,81.8,74.6,29.83,South,188,6.0,8.0,79,0.00,,,0.41,Wunderground v.1.15,2013-06-27 18:36:00,
2013-06-27 14:42:00,82.2,74.7,29.83,SSW,208,5.0,6.0,78,0.00,,,0.41,Wunderground v.1.15,2013-06-27 18:42:00,
2013-06-27 14:47:00,83.0,75.0,29.83,SSW,211,5.0,7.0,77,0.00,,,0.41,Wunderground v.1.15,2013-06-27 18:47:00,
2013-06-27 14:54:00,82.8,74.1,29.82,SSW,207,6.0,8.0,75,0.00,,,0.41,Wunderground v.1.15,2013-06-27 18:54:00,
2013-06-27 14:59:00,82.2,74.3,29.82,SSW,204,7.0,7.0,77,0.00,,,0.41,Wunderground v.1.15,2013-06-27 18:59:00,
2013-06-27 15:05:00,81.9,74.4,29.82,SW,215,5.0,8.0,78,0.00,,,0.41,Wunderground v.1.15,2013-06-27 19:05:00,
2013-06-27 15:11:00,82.0,74.5,29.82,WSW,250,5.0,5.0,78,0.00,,,0.41,Wunderground v.1.15,2013-06-27 19:11:00,
2013-06-27 15:17:00,82.7,74.8,29.82,South,188,5.0,7.0,77,0.00,,,0.41,Wunderground v.1.15,2013-06-27 19:17:00,
2013-06-27 15:23:00,82.2,73.9,29.82,SSW,193,6.0,8.0,76,0.00,,,0.41,Wunderground v.1.15,2013-06-27 19:23:00,
2013-06-27 15:30:00,81.9,74.4,29.82,SW,221,7.0,7.0,78,0.00,,,0.41,Wunderground v.1.15,2013-06-27 19:30:00,
2013-06-27 15:36:00,81.9,74.7,29.81,SSW,207,6.0,7.0,79,0.00,,,0.41,Wunderground v.1.15,2013-06-27 19:36:00,
2013-06-27 15:42:00,82.9,74.6,29.81,WSW,240,4.0,6.0,76,0.00,,,0.41,Wunderground v.1.15,2013-06-27 19:42:00,
2013-06-27 15:47:00,83.4,75.4,29.81,SW,222,5.0,6.0,77,0.00,,,0.41,Wunderground v.1.15,2013-06-27 19:47:00,
2013-06-27 15:53:00,84.0,74.4,29.80,SSW,210,6.0,8.0,73,0.00,,,0.41,Wunderground v.1.15,2013-06-27 19:53:00,
2013-06-27 15:59:00,83.9,74.3,29.80,SW,219,7.0,10.0,73,0.00,,,0.41,Wunderground v.1.15,2013-06-27 19:59:00,
2013-06-27 16:05:00,83.4,74.6,29.80,SW,217,7.0,10.0,75,0.00,,,0.41,Wunderground v.1.15,2013-06-27 20:05:00,
2013-06-27 16:11:00,83.7,74.9,29.80,SSW,201,6.0,8.0,75,0.00,,,0.41,Wunderground v.1.15,2013-06-27 20:11:00,
2013-06-27 16:17:00,83.4,73.4,29.80,SSW,195,7.0,10.0,72,0.00,,,0.41,Wunderground v.1.15,2013-06-27 20:17:00,
2013-06-27 16:24:00,83.6,74.4,29.80,SSW,198,7.0,8.0,74,0.00,,,0.41,Wunderground v.1.15,2013-06-27 20:24:00,
2013-06-27 16:32:00,83.7,74.1,29.80,South,190,7.0,7.0,73,0.00,,,0.41,Wunderground v.1.15,2013-06-27 20:32:00,
2013-06-27 16:37:00,83.3,74.5,29.80,SW,222,6.0,7.0,75,0.00,,,0.41,Wunderground v.1.15,2013-06-27 20:37:00,
2013-06-27 16:43:00,83.0,73.4,29.80,SW,221,5.0,6.0,73,0.00,,,0.41,Wunderground v.1.15,2013-06-27 20:43:00,
2013-06-27 16:49:00,82.9,74.2,29.80,SW,232,4.0,4.0,75,0.00,,,0.41,Wunderground v.1.15,2013-06-27 20:49:00,
2013-06-27 16:57:00,83.8,75.0,29.79,South,188,2.0,5.0,75,0.00,,,0.41,Wunderground v.1.15,2013-06-27 20:57:00,
2013-06-27 17:04:00,84.0,73.2,29.79,South,188,5.0,11.0,70,0.00,,,0.41,Wunderground v.1.15,2013-06-27 21:04:00,
2013-06-27 17:10:00,84.1,73.3,29.78,SW,215,8.0,10.0,70,0.00,,,0.41,Wunderground v.1.15,2013-06-27 21:10:00,
2013-06-27 17:16:00,84.3,73.9,29.78,SW,221,8.0,11.0,71,0.00,,,0.41,Wunderground v.1.15,2013-06-27 21:16:00,
2013-06-27 17:21:00,84.1,74.1,29.79,SSW,199,7.0,8.0,72,0.00,,,0.41,Wunderground v.1.15,2013-06-27 21:21:00,
2013-06-27 17:28:00,84.0,74.8,29.79,South,190,6.0,8.0,74,0.00,,,0.41,Wunderground v.1.15,2013-06-27 21:28:00,
2013-06-27 17:33:00,83.7,74.5,29.79,SW,219,5.0,6.0,74,0.00,,,0.41,Wunderground v.1.15,2013-06-27 21:33:00,
2013-06-27 17:39:00,83.0,74.3,29.79,SSW,208,5.0,5.0,75,0.00,,,0.41,Wunderground v.1.15,2013-06-27 21:39:00,
2013-06-27 17:45:00,82.5,74.6,29.78,South,180,4.0,5.0,77,0.00,,,0.41,Wunderground v.1.15,2013-06-27 21:45:00,
2013-06-27 17:51:00,82.2,75.0,29.79,South,180,3.0,5.0,79,0.00,,,0.41,Wunderground v.1.15,2013-06-27 21:51:00,
2013-06-27 17:59:00,82.5,76.1,29.79,NNW,347,2.0,2.0,81,0.00,,,0.41,Wunderground v.1.15,2013-06-27 21:59:00,
2013-06-27 18:06:00,83.0,76.2,29.79,SSW,203,0.0,5.0,80,0.00,,,0.41,Wunderground v.1.15,2013-06-27 22:06:00,
2013-06-27 18:11:00,81.7,71.8,29.78,WNW,299,2.0,5.0,72,0.00,,,0.41,Wunderground v.1.15,2013-06-27 22:11:00,
2013-06-27 18:17:00,81.1,72.0,29.78,West,281,3.0,5.0,74,0.00,,,0.41,Wunderground v.1.15,2013-06-27 22:17:00,
2013-06-27 18:23:00,81.1,72.4,29.78,SW,236,0.0,5.0,75,0.00,,,0.41,Wunderground v.1.15,2013-06-27 22:23:00,
2013-06-27 18:29:00,80.9,72.6,29.78,WSW,250,0.0,5.0,76,0.00,,,0.41,Wunderground v.1.15,2013-06-27 22:29:00,
2013-06-27 18:35:00,80.8,72.9,29.78,WSW,250,0.0,5.0,77,0.00,,,0.41,Wunderground v.1.15,2013-06-27 22:35:00,
2013-06-27 18:42:00,80.2,73.5,29.78,SE,138,1.0,5.0,80,0.00,,,0.41,Wunderground v.1.15,2013-06-27 22:42:00,
2013-06-27 18:47:00,79.7,73.7,29.78,SE,146,1.0,5.0,82,0.00,,,0.41,Wunderground v.1.15,2013-06-27 22:47:00,
2013-06-27 18:54:00,79.7,73.7,29.78,SE,146,1.0,5.0,82,0.00,,,0.41,Wunderground v.1.15,2013-06-27 22:54:00,
2013-06-27 19:00:00,79.6,74.0,29.78,South,184,0.0,5.0,83,0.00,,,0.41,Wunderground v.1.15,2013-06-27 23:00:00,
2013-06-27 19:06:00,79.6,74.0,29.78,South,184,0.0,5.0,83,0.00,,,0.41,Wunderground v.1.15,2013-06-27 23:06:00,
2013-06-27 19:11:00,79.7,74.8,29.78,SSE,160,0.0,5.0,85,0.00,,,0.41,Wunderground v.1.15,2013-06-27 23:11:00,
2013-06-27 19:17:00,79.6,75.0,29.78,SSE,149,0.0,5.0,86,0.00,,,0.41,Wunderground v.1.15,2013-06-27 23:17:00,
2013-06-27 19:25:00,79.4,74.8,29.78,SSE,149,0.0,5.0,86,0.00,,,0.41,Wunderground v.1.15,2013-06-27 23:25:00,
2013-06-27 19:33:00,79.4,74.5,29.77,SSE,167,0.0,5.0,85,0.00,,,0.41,Wunderground v.1.15,2013-06-27 23:33:00,
2013-06-27 19:39:00,79.2,74.6,29.78,South,183,0.0,5.0,86,0.00,,,0.41,Wunderground v.1.15,2013-06-27 23:39:00,
2013-06-27 19:48:00,79.0,74.8,29.78,SW,222,1.0,5.0,87,0.00,,,0.41,Wunderground v.1.15,2013-06-27 23:48:00,
2013-06-27 19:57:00,78.6,74.7,29.78,SW,219,1.0,5.0,88,0.00,,,0.41,Wunderground v.1.15,2013-06-27 23:57:00,
2013-06-27 20:03:00,78.4,74.5,29.79,SSW,208,1.0,5.0,88,0.00,,,0.41,Wunderground v.1.15,2013-06-28 00:03:00,
2013-06-27 20:09:00,78.3,74.5,29.79,SSW,204,3.0,5.0,88,0.00,,,0.41,Wunderground v.1.15,2013-06-28 00:09:00,
2013-06-27 20:16:00,78.2,73.3,29.79,SW,222,5.0,7.0,85,0.00,,,0.41,Wunderground v.1.15,2013-06-28 00:16:00,
2013-06-27 20:22:00,78.3,73.8,29.79,SW,225,5.0,5.0,86,0.00,,,0.41,Wunderground v.1.15,2013-06-28 00:22:00,
2013-06-27 20:28:00,78.1,73.9,29.79,South,187,4.0,5.0,87,0.00,,,0.41,Wunderground v.1.15,2013-06-28 00:28:00,
2013-06-27 20:34:00,77.6,73.8,29.78,South,173,4.0,5.0,88,0.00,,,0.41,Wunderground v.1.15,2013-06-28 00:34:00,
2013-06-27 20:39:00,77.2,73.7,29.79,South,187,3.0,5.0,89,0.00,,,0.41,Wunderground v.1.15,2013-06-28 00:39:00,
2013-06-27 20:45:00,77.0,73.2,29.79,South,180,3.0,5.0,88,0.00,,,0.41,Wunderground v.1.15,2013-06-28 00:45:00,
2013-06-27 20:54:00,76.2,72.4,29.80,South,172,4.0,5.0,88,0.00,,,0.41,Wunderground v.1.15,2013-06-28 00:54:00,
2013-06-27 21:00:00,75.5,71.7,29.80,South,191,6.0,6.0,88,0.00,,,0.41,Wunderground v.1.15,2013-06-28 01:00:00,
2013-06-27 21:05:00,75.3,71.5,29.80,South,191,6.0,6.0,88,0.00,,,0.41,Wunderground v.1.15,2013-06-28 01:05:00,
2013-06-27 21:13:00,75.1,71.3,29.81,South,191,5.0,5.0,88,0.00,,,0.41,Wunderground v.1.15,2013-06-28 01:13:00,
2013-06-27 21:19:00,74.5,70.7,29.81,South,186,6.0,6.0,88,0.00,,,0.41,Wunderground v.1.15,2013-06-28 01:19:00,
2013-06-27 21:25:00,74.1,70.6,29.81,SSW,211,7.0,7.0,89,0.00,,,0.41,Wunderground v.1.15,2013-06-28 01:25:00,
2013-06-27 21:31:00,73.8,70.4,29.81,SSW,203,5.0,5.0,89,0.00,,,0.41,Wunderground v.1.15,2013-06-28 01:31:00,
2013-06-27 21:39:00,73.6,70.2,29.82,SSW,200,4.0,4.0,89,0.00,,,0.41,Wunderground v.1.15,2013-06-28 01:39:00,
2013-06-27 21:46:00,73.4,70.0,29.82,South,181,3.0,6.0,89,0.00,,,0.41,Wunderground v.1.15,2013-06-28 01:46:00,
2013-06-27 21:52:00,73.4,70.0,29.82,South,187,4.0,5.0,89,0.00,,,0.41,Wunderground v.1.15,2013-06-28 01:52:00,
2013-06-27 21:58:00,73.3,69.9,29.82,SSW,203,5.0,5.0,89,0.00,,,0.41,Wunderground v.1.15,2013-06-28 01:58:00,
2013-06-27 22:03:00,73.2,70.1,29.82,SSW,193,4.0,5.0,90,0.00,,,0.41,Wunderground v.1.15,2013-06-28 02:03:00,
2013-06-27 22:09:00,73.0,69.9,29.83,SSW,195,3.0,3.0,90,0.00,,,0.41,Wunderground v.1.15,2013-06-28 02:09:00,
2013-06-27 22:15:00,72.8,70.0,29.83,SSE,167,2.0,5.0,91,0.00,,,0.41,Wunderground v.1.15,2013-06-28 02:15:00,
2013-06-27 22:23:00,72.5,70.0,29.83,SSE,154,2.0,5.0,92,0.00,,,0.41,Wunderground v.1.15,2013-06-28 02:23:00,
2013-06-27 22:29:00,72.3,69.8,29.83,SSE,147,1.0,5.0,92,0.00,,,0.41,Wunderground v.1.15,2013-06-28 02:29:00,
2013-06-27 22:35:00,72.1,70.0,29.83,South,176,2.0,5.0,93,0.00,,,0.41,Wunderground v.1.15,2013-06-28 02:35:00,
2013-06-27 22:41:00,71.8,69.7,29.83,SSW,193,2.0,5.0,93,0.00,,,0.41,Wunderground v.1.15,2013-06-28 02:41:00,
2013-06-27 22:50:00,71.7,69.9,29.83,SSW,200,2.0,5.0,94,0.00,,,0.41,Wunderground v.1.15,2013-06-28 02:50:00,
2013-06-27 22:58:00,71.9,69.8,29.83,SSW,204,2.0,5.0,93,0.00,,,0.41,Wunderground v.1.15,2013-06-28 02:58:00,
2013-06-27 23:03:00,72.0,69.9,29.83,South,188,3.0,5.0,93,0.00,,,0.41,Wunderground v.1.15,2013-06-28 03:03:00,
2013-06-27 23:11:00,72.1,69.6,29.83,South,186,3.0,5.0,92,0.00,,,0.41,Wunderground v.1.15,2013-06-28 03:11:00,
2013-06-27 23:17:00,71.9,69.4,29.83,SSE,156,4.0,5.0,92,0.00,,,0.41,Wunderground v.1.15,2013-06-28 03:17:00,
2013-06-27 23:25:00,71.7,69.6,29.84,SSE,160,2.0,5.0,93,0.00,,,0.41,Wunderground v.1.15,2013-06-28 03:25:00,
2013-06-27 23:33:00,71.4,69.3,29.83,South,190,3.0,5.0,93,0.00,,,0.41,Wunderground v.1.15,2013-06-28 03:33:00,
2013-06-27 23:39:00,71.4,69.3,29.83,SW,214,4.0,4.0,93,0.00,,,0.41,Wunderground v.1.15,2013-06-28 03:39:00,
2013-06-27 23:48:00,71.3,69.2,29.84,SSW,205,3.0,5.0,93,0.00,,,0.41,Wunderground v.1.15,2013-06-28 03:48:00,
2013-06-27 23:54:00,71.1,69.0,29.84,SW,225,1.0,5.0,93,0.00,,,0.41,Wunderground v.1.15,2013-06-28 03:54:00,